sat.trackr.live / text

‹ back to catalog

STARLINK-4633

NORAD 53964 · 2022-125A

PAYLOAD ACTIVE UNKNOWN

§ Identity

Operator
Country
US
Launch date
2022-10-05
Launch site
AFWTR
Launch vehicle
Mass (kg)
RCS (m²)

Purposes: comms

External: N2YO · Heavens-Above · Gunter

§ Orbital elements

Epoch: 2026-05-24T22:57:27.383616Z

Period
95.44 min
Inclination
53.2169°
Eccentricity
0.0001320
Mean motion
15.08835401 rev/d
Perigee alt
538.8 km
Apogee alt
540.7 km
Semi-major
6,917.9 km
B*
1.1165e-5
RAAN
241.8986°
Arg perigee
88.0214°
Mean anomaly
272.0929°
Rev number
20,083

§ Raw data

STARLINK-46331 53964U 22125A   26144.95656694 -.00000110  00000+0  11165-4 0  99962 53964  53.2169 241.8986 0001320  88.0214 272.0929 15.08835401200831

JSON: /api/v1/satellites/53964 · /tle

For live sub-satellite position, see the globe view (requires WebGL).

§ Visibility from observer

Set your observer location to see the next 7 days of passes ≥ 10°. The values pass through the URL so the page stays shareable.

No JS? Fill the form by hand. The geolocation button needs JavaScript.